Location: Holyhead Bay
(53.3667°N, 4.6667°W)
Time: 18:52:09
(UTC+00:00)

SL-16 R/B - Pass Details

Date: 24 November 2020
Orbit: 842 x 846 km, 71.0° (Epoch: 16 January)

Event Time Altitude Azimuth Distance (km) Brightness Sun altitude
Rises 17:41:01 0° 259° (W) 3,400 7.3 -13.0°
Reaches altitude 10° 17:43:57 10° 274° (W) 2,468 5.8 -13.4°
Maximum altitude 17:48:29 24° 327° (NNW) 1,689 4.0 -14.0°
Drops below altitude 10° 17:53:02 10° 20° (NNE) 2,478 4.3 -14.7°
Enters shadow 17:53:47 - 25° (NNE) 2,703 4.5 -14.8°
